sat.trackr.live / text

‹ back to catalog

YAOGAN-45

NORAD 65563 · 2025-202A

PAYLOAD ACTIVE UNKNOWN

§ Identity

Operator
Country
PRC
Launch date
2025-09-09
Launch site
WSC
Launch vehicle
Mass (kg)
RCS (m²)

External: N2YO · Heavens-Above · Gunter

§ Orbital elements

Epoch: 2026-09-20T01:48:02.590272Z

Period
271.08 min
Inclination
19.9306°
Eccentricity
0.0007555
Mean motion
5.31204397 rev/d
Perigee alt
7,486.2 km
Apogee alt
7,507.2 km
Semi-major
13,874.8 km
B*
0.0000e+0
RAAN
159.0164°
Arg perigee
357.2135°
Mean anomaly
2.8120°
Rev number
1,713

§ Raw data

YAOGAN-451 65563U 25202A   26263.07502998 -.00000018  00000+0  00000+0 0  99932 65563  19.9306 159.0164 0007555 357.2135   2.8120  5.31204397 17138

JSON: /api/v1/satellites/65563 · /tle

For live sub-satellite position, see the globe view (requires WebGL).

§ Visibility from observer

Set your observer location to see the next 7 days of passes ≥ 10°. The values pass through the URL so the page stays shareable.

No JS? Fill the form by hand. The geolocation button needs JavaScript.